Flag for Canada Weather past 2 weeks in Mississauga, Ontario, Canada

Now
63 °F

Fog.


Feels Like: 63 °F
Forecast: 63 / 77 °F
Wind: 8 mph from North

Location: Toronto Pearson International Airport

Current Time: Aug 22, 2014 at 6:22:04 AM

Latest Report: Aug 22, 2014 at 6:00 AM


Visibility: 6 mi

Pressure: 29.97 "Hg

Humidity: 100%

Dew point: 63 °F

Location of MississaugaLocation

Historic Weather in Mississauga — Graph

°F

Mississauga temperature yesterday

Maximum temperature yesterday: 79 °F (at 4:00 PM)
Minimum temperature yesterday: 64 °F (at 6:49 AM)
Average temperature yesterday: 71 °F

Past Weeks' High & Low Weather Summary

 TemperatureHumidityPressure
High82 °F (Aug 11, 3:00 PM)100% (Aug 21, 6:49 AM)30.19 "Hg (Aug 21, 6:49 AM)
Low54 °F (Aug 14, 5:00 AM)36% (Aug 7, 5:00 PM)29.67 "Hg (Aug 12, 4:00 PM)
Average67 °F71%29.95 "Hg
* Reported Aug 7 5:00 AM — Aug 22 5:00 AM, Mississauga, Weather by CustomWeather, © 2014

Note: Actual official high and low records may vary slightly from our data, if they occured in-between our weather recording intervals... More about our weather records

Advertising

Mississauga weather history for previous 24 hours

 ConditionsComfort  
Time TempWeatherWind HumidityBarometerVisibility
5:00 AM
Aug 22
64 °FPassing clouds.9 mph94%29.96 "Hg12 mi
4:00 AM64 °FPartly cloudy.7 mph94%29.98 "Hg12 mi
3:00 AM64 °FPartly cloudy.8 mph94%29.98 "Hg12 mi
2:00 AM64 °FPartly cloudy.8 mph94%29.98 "Hg15 mi
1:00 AM66 °FPassing clouds.10 mph88%29.98 "Hg15 mi
12:00 AM66 °FPassing clouds.9 mph88%29.98 "Hg15 mi
11:00 PM
Aug 21
68 °FPassing clouds.10 mph88%29.98 "Hg15 mi
10:00 PM70 °FPassing clouds.7 mph83%29.97 "Hg15 mi
9:00 PM73 °FScattered clouds.10 mph74%29.96 "Hg15 mi
8:00 PM75 °FBroken clouds.10 mph69%29.95 "Hg15 mi
7:00 PM79 °FScattered clouds.12 mph58%29.94 "Hg15 mi
6:00 PM79 °FBroken clouds.9 mph61%29.93 "Hg15 mi
5:00 PM79 °FBroken clouds.7 mph61%29.93 "Hg15 mi
4:00 PM79 °FBroken clouds.2 mph61%29.93 "Hg15 mi
3:00 PM77 °FPartly sunny.3 mph65%29.93 "Hg15 mi
2:00 PM73 °FPartly sunny.6 mph78%29.95 "Hg15 mi
1:00 PM75 °FPartly sunny.9 mph69%29.95 "Hg15 mi
12:00 PM75 °FScattered showers. Partly sunny.3 mph69%29.95 "Hg15 mi
11:00 AM75 °FPartly sunny.5 mph69%29.95 "Hg15 mi
10:00 AM72 °FPartly sunny.6 mph83%29.95 "Hg15 mi
9:00 AM70 °FScattered clouds.2 mph83%29.95 "Hg10 mi
8:00 AM66 °FFog.No wind94%29.95 "Hg6 mi
7:00 AM64 °FFog.2 mph100%29.94 "Hg1 mi
6:49 AM64 °FFog.5 mph100%29.94 "Hg1 mi
6:00 AM66 °FPartly cloudy.3 mph94%29.93 "Hg8 mi
Weather by CustomWeather, © 2014

See weather overviewHow to use our weather pages